Location: Mahannah Oil Field
(37.4664°N, 96.6003°W)
Time: 10:09:16
(UTC+00:00)

deb Explorer IX - Pass Details

Date: 31 January 2021
Orbit: 538 x 1101 km, 38.8° (Epoch: 07 March)

Event Time Altitude Azimuth Distance (km) Brightness Sun altitude
Rises 00:15:06 0° 277° (W) 3,838 ? -5.7°
Reaches altitude 10° 00:17:57 10° 278° (W) 2,831 ? -6.3°
Maximum altitude 00:24:52 83° 7° (N) 952 ? -7.6°
Drops below altitude 10° 00:30:49 10° 95° (E) 2,456 ? -8.7°
Enters shadow 00:31:06 - 95° (E) 2,558 ? -8.8°
